Radiation Dose at Monitoring Post of Fukushima Daini Nuclear Power Station
Date,Time,MP-1(microSv/h),MP-2(microSv/h),MP-3(microSv/h),MP-4(microSv/h),MP-5(microSv/h),MP-6(microSv/h),MP-7(microSv/h),Wind Direction,Wind Velocity(m/s),Rain
2022/05/25,00:00,0.152,0.140,0.219,0.214,0.216,0.120,0.077,south-southwest,3.1,No
2022/05/25,00:10,0.150,0.142,0.221,0.212,0.215,0.121,0.076,south,2.5,No
2022/05/25,00:20,0.151,0.140,0.219,0.214,0.217,0.121,0.078,south-southeast,2.2,No
2022/05/25,00:30,0.150,0.141,0.221,0.214,0.214,0.121,0.077,south-southeast,2.0,No
2022/05/25,00:40,0.152,0.141,0.220,0.214,0.217,0.121,0.077,south,1.9,No
2022/05/25,00:50,0.151,0.141,0.220,0.216,0.215,0.121,0.078,south-southeast,1.3,No
2022/05/25,01:00,0.150,0.142,0.220,0.213,0.216,0.120,0.077,south-southeast,1.1,No
2022/05/25,01:10,0.150,0.141,0.219,0.215,0.216,0.120,0.078,south-southeast,1.0,No
2022/05/25,01:20,0.151,0.141,0.221,0.214,0.216,0.121,0.078,south,0.7,No
2022/05/25,01:30,0.151,0.142,0.220,0.216,0.216,0.122,0.078,-,CALM,No
2022/05/25,01:40,0.151,0.141,0.219,0.214,0.217,0.121,0.077,-,CALM,No
2022/05/25,01:50,0.151,0.142,0.219,0.215,0.217,0.121,0.077,north,1.1,No
2022/05/25,02:00,0.150,0.141,0.219,0.215,0.217,0.121,0.078,north-northeast,1.0,No
2022/05/25,02:10,0.152,0.142,0.219,0.214,0.216,0.121,0.078,north-northwest,0.7,No
2022/05/25,02:20,0.150,0.141,0.220,0.215,0.215,0.121,0.078,north-northwest,1.0,No
2022/05/25,02:30,0.152,0.142,0.219,0.213,0.218,0.120,0.078,northwest,0.6,No
2022/05/25,02:40,0.151,0.143,0.219,0.214,0.215,0.121,0.078,north-northwest,0.6,No
2022/05/25,02:50,0.151,0.142,0.219,0.214,0.218,0.121,0.078,north-northwest,0.9,No
2022/05/25,03:00,0.151,0.142,0.219,0.213,0.214,0.121,0.078,north,1.4,No
2022/05/25,03:10,0.150,0.141,0.219,0.215,0.217,0.121,0.077,north,0.7,No
2022/05/25,03:20,0.151,0.141,0.220,0.214,0.215,0.121,0.078,north-northeast,0.8,No
2022/05/25,03:30,0.152,0.141,0.220,0.214,0.216,0.121,0.077,north,1.4,No
2022/05/25,03:40,0.151,0.141,0.220,0.215,0.217,0.120,0.078,north-northwest,1.1,No
2022/05/25,03:50,0.151,0.141,0.219,0.213,0.215,0.121,0.078,northwest,1.1,No
2022/05/25,04:00,0.151,0.141,0.219,0.215,0.217,0.121,0.078,north-northwest,1.3,No
2022/05/25,04:10,0.151,0.141,0.219,0.215,0.215,0.121,0.078,northwest,1.3,No
2022/05/25,04:20,0.152,0.142,0.219,0.213,0.216,0.121,0.078,north-northwest,1.6,No
2022/05/25,04:30,0.150,0.141,0.219,0.215,0.216,0.121,0.078,north,1.1,No
2022/05/25,04:40,0.151,0.141,0.219,0.213,0.218,0.121,0.077,north-northeast,1.1,No
2022/05/25,04:50,0.151,0.141,0.220,0.215,0.216,0.121,0.079,-,CALM,No
2022/05/25,05:00,0.151,0.141,0.218,0.213,0.217,0.121,0.078,-,CALM,No
2022/05/25,05:10,0.152,0.141,0.219,0.214,0.216,0.120,0.078,-,CALM,No
2022/05/25,05:20,0.150,0.141,0.220,0.215,0.216,0.122,0.078,-,CALM,No
2022/05/25,05:30,0.152,0.142,0.218,0.213,0.214,0.121,0.078,-,CALM,No
2022/05/25,05:40,0.151,0.141,0.219,0.214,0.217,0.121,0.079,-,CALM,No
2022/05/25,05:50,0.152,0.141,0.217,0.213,0.215,0.121,0.077,east-southeast,0.7,No
2022/05/25,06:00,0.149,0.141,0.220,0.214,0.218,0.121,0.077,south-southeast,0.6,No
2022/05/25,06:10,0.150,0.142,0.219,0.213,0.215,0.121,0.078,-,CALM,No
2022/05/25,06:20,0.151,0.140,0.219,0.214,0.217,0.120,0.078,east,0.8,No
2022/05/25,06:30,0.151,0.141,0.220,0.213,0.216,0.122,0.078,northeast,0.8,No
2022/05/25,06:40,0.150,0.141,0.218,0.214,0.216,0.121,0.078,north-northeast,1.5,No
2022/05/25,06:50,0.151,0.140,0.219,0.212,0.216,0.121,0.078,north,1.4,No
2022/05/25,07:00,0.151,0.141,0.219,0.213,0.214,0.121,0.077,north,1.3,No
2022/05/25,07:10,0.151,0.141,0.217,0.214,0.218,0.122,0.078,northeast,0.6,No
2022/05/25,07:20,0.151,0.141,0.218,0.213,0.215,0.122,0.077,north-northeast,1.4,No
2022/05/25,07:30,0.152,0.141,0.218,0.214,0.217,0.121,0.077,north-northeast,2.0,No
2022/05/25,07:40,0.150,0.140,0.216,0.212,0.216,0.120,0.077,north-northeast,1.3,No
2022/05/25,07:50,0.149,0.140,0.216,0.213,0.214,0.121,0.078,northeast,1.8,No
2022/05/25,08:00,0.151,0.141,0.219,0.214,0.218,0.122,0.078,northeast,1.4,No
2022/05/25,08:10,0.150,0.140,0.219,0.213,0.215,0.121,0.078,east-northeast,1.8,No
2022/05/25,08:20,0.151,0.140,0.216,0.212,0.215,0.122,0.077,east-northeast,2.1,No
2022/05/25,08:30,0.150,0.141,0.218,0.214,0.218,0.121,0.079,east-northeast,1.8,No
2022/05/25,08:40,0.152,0.141,0.220,0.214,0.214,0.121,0.078,north-northeast,1.6,No
2022/05/25,08:50,0.151,0.140,0.216,0.212,0.214,0.121,0.077,northeast,2.2,No
2022/05/25,09:00,0.151,0.142,0.218,0.212,0.216,0.121,0.078,northeast,2.6,No
2022/05/25,09:10,0.151,0.142,0.221,0.214,0.216,0.120,0.077,northeast,2.6,No
2022/05/25,09:20,0.151,0.141,0.219,0.213,0.215,0.120,0.077,north-northeast,2.3,No
2022/05/25,09:30,0.151,0.141,0.220,0.213,0.216,0.120,0.077,north-northeast,2.3,No
2022/05/25,09:40,0.149,0.141,0.218,0.214,0.216,0.120,0.078,northeast,1.9,No
2022/05/25,09:50,0.151,0.141,0.219,0.215,0.215,0.121,0.077,northeast,2.4,No
2022/05/25,10:00,0.150,0.141,0.221,0.213,0.214,0.120,0.077,east-northeast,1.4,No
2022/05/25,10:10,0.151,0.142,0.219,0.212,0.217,0.120,0.077,northeast,2.1,No
2022/05/25,10:20,0.150,0.140,0.219,0.215,0.216,0.120,0.076,northeast,1.6,No
2022/05/25,10:30,0.150,0.142,0.220,0.214,0.214,0.121,0.077,northeast,1.9,No
2022/05/25,10:40,0.152,0.141,0.219,0.213,0.215,0.120,0.077,east-northeast,1.7,No
2022/05/25,10:50,0.150,0.140,0.219,0.211,0.216,0.121,0.077,east-southeast,1.9,No
2022/05/25,11:00,0.151,0.141,0.220,0.215,0.217,0.121,0.076,east,1.7,No
2022/05/25,11:10,0.151,0.141,0.219,0.215,0.217,0.120,0.076,east-northeast,1.3,No
2022/05/25,11:20,0.150,0.140,0.219,0.213,0.214,0.120,0.077,east-northeast,1.4,No
2022/05/25,11:30,0.152,0.141,0.222,0.213,0.215,0.121,0.077,east,1.6,No
2022/05/25,11:40,0.150,0.141,0.219,0.214,0.217,0.121,0.077,east-southeast,1.6,No
2022/05/25,11:50,0.151,0.141,0.218,0.213,0.216,0.120,0.078,east-southeast,2.1,No
2022/05/25,12:00,0.152,0.141,0.221,0.212,0.214,0.121,0.077,east-southeast,2.0,No
2022/05/25,12:10,0.149,0.139,0.219,0.213,0.215,0.121,0.077,east-southeast,2.2,No
2022/05/25,12:20,0.152,0.142,0.217,0.216,0.213,0.121,0.077,southeast,2.9,No
2022/05/25,12:30,0.151,0.141,0.220,0.214,0.213,0.120,0.077,southeast,1.7,No
2022/05/25,12:40,0.150,0.141,0.218,0.213,0.213,0.120,0.076,east-southeast,3.0,No
2022/05/25,12:50,0.152,0.140,0.219,0.211,0.218,0.121,0.076,southeast,3.9,No
2022/05/25,13:00,0.151,0.141,0.217,0.212,0.217,0.120,0.076,southeast,4.1,No
2022/05/25,13:10,0.149,0.141,0.219,0.215,0.216,0.120,0.077,southeast,4.5,No
2022/05/25,13:20,0.149,0.140,0.221,0.215,0.214,0.120,0.077,south-southeast,6.0,No
2022/05/25,13:30,0.151,0.141,0.220,0.213,0.215,0.120,0.076,south-southeast,6.0,No
2022/05/25,13:40,0.150,0.142,0.219,0.213,0.213,0.120,0.077,south-southeast,7.5,No
2022/05/25,13:50,0.149,0.141,0.217,0.212,0.213,0.120,0.077,south-southeast,8.1,No
2022/05/25,14:00,0.148,0.140,0.217,0.213,0.213,0.120,0.077,south-southeast,9.5,No
2022/05/25,14:10,0.149,0.140,0.216,0.216,0.213,0.121,0.076,south-southeast,9.6,No
2022/05/25,14:20,0.152,0.141,0.218,0.215,0.214,0.120,0.076,south-southeast,8.7,No
2022/05/25,14:30,0.151,0.141,0.222,0.215,0.213,0.120,0.077,south-southeast,9.2,No
2022/05/25,14:40,0.150,0.140,0.219,0.212,0.214,0.120,0.077,south-southeast,9.8,No
2022/05/25,14:50,0.149,0.140,0.219,0.213,0.213,0.121,0.076,south-southeast,9.6,No
2022/05/25,15:00,0.148,0.141,0.218,0.216,0.216,0.120,0.076,south-southeast,8.4,No
2022/05/25,15:10,0.149,0.141,0.218,0.215,0.218,0.120,0.076,south-southeast,8.7,No
2022/05/25,15:20,0.148,0.141,0.219,0.213,0.216,0.121,0.077,south-southeast,9.3,No
2022/05/25,15:30,0.150,0.140,0.222,0.211,0.217,0.121,0.076,south-southeast,9.5,No
2022/05/25,15:40,0.151,0.140,0.221,0.215,0.215,0.120,0.077,south-southeast,11.2,No
2022/05/25,15:50,0.150,0.142,0.219,0.215,0.214,0.120,0.077,south,11.1,No
2022/05/25,16:00,0.150,0.140,0.218,0.213,0.214,0.120,0.077,south-southeast,9.8,No
2022/05/25,16:10,0.149,0.140,0.221,0.216,0.217,0.120,0.077,south-southeast,10.7,No
2022/05/25,16:20,0.149,0.141,0.219,0.216,0.218,0.121,0.077,south,11.1,No
2022/05/25,16:30,0.151,0.140,0.221,0.215,0.216,0.121,0.076,south,10.0,No
2022/05/25,16:40,0.151,0.143,0.220,0.217,0.214,0.120,0.077,south-southeast,10.4,Yes
2022/05/25,16:50,0.149,0.141,0.218,0.215,0.216,0.121,0.077,south,9.6,No
2022/05/25,17:00,0.152,0.140,0.222,0.214,0.219,0.121,0.078,south,9.8,No
2022/05/25,17:10,0.151,0.142,0.221,0.216,0.216,0.120,0.077,south,10.0,No
2022/05/25,17:20,0.149,0.141,0.220,0.214,0.215,0.121,0.076,south,9.5,No
2022/05/25,17:30,0.151,0.142,0.221,0.216,0.218,0.121,0.077,south,8.7,No
2022/05/25,17:40,0.152,0.141,0.220,0.216,0.216,0.120,0.077,south,9.5,No
2022/05/25,17:50,0.151,0.141,0.221,0.215,0.217,0.121,0.078,south-southeast,8.8,No
2022/05/25,18:00,0.152,0.142,0.219,0.216,0.218,0.120,0.077,south,9.5,No
2022/05/25,18:10,0.149,0.141,0.220,0.214,0.215,0.120,0.077,south-southeast,9.3,No
2022/05/25,18:20,0.151,0.141,0.219,0.216,0.218,0.121,0.077,south,9.3,No
2022/05/25,18:30,0.151,0.141,0.220,0.215,0.216,0.120,0.077,south,8.7,No
2022/05/25,18:40,0.151,0.142,0.221,0.215,0.216,0.121,0.078,south,8.1,No
2022/05/25,18:50,0.152,0.142,0.219,0.215,0.217,0.120,0.077,south,8.3,No
2022/05/25,19:00,0.149,0.140,0.221,0.214,0.216,0.121,0.076,south,6.4,No
2022/05/25,19:10,0.151,0.141,0.219,0.216,0.218,0.120,0.077,south,7.2,No
2022/05/25,19:20,0.150,0.141,0.222,0.214,0.215,0.121,0.077,south,8.3,No
2022/05/25,19:30,0.150,0.142,0.219,0.216,0.217,0.121,0.077,south,7.7,No
2022/05/25,19:40,0.151,0.140,0.221,0.215,0.216,0.120,0.077,south,8.1,No
2022/05/25,19:50,0.149,0.141,0.220,0.216,0.216,0.121,0.077,south,8.1,No
2022/05/25,20:00,0.151,0.140,0.222,0.215,0.217,0.121,0.077,south,7.7,No
2022/05/25,20:10,0.150,0.141,0.220,0.215,0.215,0.120,0.077,south,7.5,No
2022/05/25,20:20,0.150,0.140,0.223,0.216,0.218,0.121,0.076,south,6.8,No
2022/05/25,20:30,0.151,0.142,0.220,0.214,0.216,0.120,0.077,south,6.8,No
2022/05/25,20:40,0.151,0.141,0.221,0.216,0.217,0.120,0.077,south,6.8,No
2022/05/25,20:50,0.151,0.141,0.220,0.214,0.216,0.121,0.077,south,6.5,No
2022/05/25,21:00,0.151,0.141,0.221,0.216,0.216,0.121,0.077,south,7.4,No
2022/05/25,21:10,0.152,0.141,0.221,0.215,0.217,0.122,0.076,south,6.6,No
2022/05/25,21:20,0.150,0.141,0.220,0.217,0.215,0.120,0.077,south,7.2,No
2022/05/25,21:30,0.151,0.141,0.222,0.214,0.217,0.121,0.076,south,6.6,No
2022/05/25,21:40,0.151,0.141,0.219,0.215,0.214,0.122,0.077,south,6.6,No
2022/05/25,21:50,0.151,0.142,0.221,0.214,0.218,0.120,0.077,south,6.7,No
2022/05/25,22:00,0.151,0.141,0.220,0.215,0.216,0.121,0.077,south,6.7,No
2022/05/25,22:10,0.151,0.142,0.222,0.216,0.217,0.120,0.077,south,6.8,No
2022/05/25,22:20,0.151,0.141,0.220,0.215,0.216,0.121,0.076,south,6.7,No
2022/05/25,22:30,0.150,0.141,0.221,0.216,0.216,0.120,0.077,south,7.7,No
2022/05/25,22:40,0.151,0.140,0.220,0.215,0.217,0.120,0.076,south,6.3,No
2022/05/25,22:50,0.151,0.142,0.221,0.216,0.215,0.121,0.078,south,7.1,No
2022/05/25,23:00,0.152,0.141,0.219,0.214,0.217,0.120,0.077,south,7.1,No
2022/05/25,23:10,0.150,0.142,0.220,0.216,0.215,0.121,0.077,south,6.7,No
2022/05/25,23:20,0.152,0.140,0.219,0.215,0.217,0.120,0.076,south,7.2,No
2022/05/25,23:30,0.151,0.142,0.221,0.215,0.216,0.121,0.078,south,6.7,No
2022/05/25,23:40,0.151,0.141,0.220,0.214,0.218,0.121,0.077,south,6.7,No
2022/05/25,23:50,0.150,0.142,0.222,0.216,0.215,0.120,0.077,south,6.8,No
